Wind_Speed
30 30 28 27 27 27 27 26 26 25 26 26 25 25 26 27 27 27 27 28 28 29 30 31 33 34 34 35 36 36 37 37 38 39 40 41 42 43 44 46 47 48 49 50
32 31 30 30 30 29 29 28 28 28 28 28 27 26 26 26 27 28 28 29 29 30 31 31 33 34 35 36 37 38 38 39 39 40 41 42 44 45 46 48 49 50 51 52
34 33 33 33 32 32 31 31 30 30 30 30 30 29 27 27 28 28 29 30 30 31 31 32 34 35 36 37 38 39 40 40 41 42 43 44 46 47 48 49 50 52 53 54
37 35 35 34 34 34 34 33 33 33 32 32 32 32 29 29 29 30 30 31 31 32 33 34 35 36 38 39 40 41 41 42 44 45 46 47 48 49 51 51 52 53 55 56
38 37 37 36 35 35 35 35 35 35 35 35 34 35 33 31 31 31 32 32 33 33 34 36 37 37 38 40 41 42 43 44 45 47 49 50 51 52 52 53 54 56 57 58
40 39 38 37 36 37 37 37 37 37 37 38 36 37 36 34 33 33 34 35 35 35 36 37 38 38 39 41 42 43 44 45 47 48 50 51 53 54 54 55 56 58 59 60
41 40 39 38 38 38 38 37 38 39 40 40 38 39 39 37 36 36 36 37 37 38 38 39 39 40 41 43 44 45 46 47 48 50 52 53 54 55 56 57 58 59 61 61
42 41 40 40 39 38 38 38 39 41 42 41 41 41 40 40 39 38 39 39 39 39 40 41 41 42 43 44 45 47 48 49 50 51 53 55 56 57 58 59 60 61 62 62
43 43 42 41 40 40 40 40 40 42 44 44 44 44 42 41 41 41 41 41 41 41 42 42 43 44 45 46 47 48 49 50 51 53 55 56 57 58 60 60 61 61 61 62
43 44 44 43 43 43 42 41 41 42 44 45 46 45 44 43 42 42 43 43 43 43 44 44 45 46 47 48 48 50 50 51 53 54 56 57 58 58 59 59 60 61 61 61
43 45 45 45 45 44 43 43 43 44 45 46 47 46 45 44 44 44 44 44 44 44 45 46 47 48 49 49 50 51 52 53 54 55 57 57 58 58 58 59 60 60 60 59
43 44 45 45 45 45 45 45 45 46 46 47 48 47 45 45 45 45 45 45 46 46 47 48 48 48 49 50 51 52 53 55 55 56 57 57 57 58 58 59 59 59 58 57
43 44 45 46 46 45 46 45 45 46 46 47 48 47 46 45 45 45 45 45 46 47 48 49 49 49 50 51 52 53 53 55 56 56 56 57 57 57 57 57 57 56 55 55
43 45 45 45 45 44 45 45 44 45 46 47 47 46 44 44 45 45 45 46 47 48 49 50 50 51 51 52 53 54 54 55 56 56 56 56 57 57 56 55 54 54 53 52
44 45 45 45 46 45 45 45 45 46 46 47 46 46 44 44 45 45 46 47 48 48 50 50 51 52 52 53 54 54 55 55 56 56 56 55 55 55 55 54 53 52 51 49
44 45 45 46 46 47 47 46 47 47 46 47 47 46 44 45 46 47 47 47 48 49 50 50 51 52 52 53 53 54 54 55 55 55 55 54 54 53 52 52 51 50 48 46
44 44 45 46 46 47 49 47 47 47 46 46 46 45 45 46 46 47 48 48 49 50 50 50 51 51 52 53 53 53 53 53 53 53 53 53 53 51 50 49 47 46 45 43
41 41 42 44 45 47 46 45 45 46 46 46 46 46 46 47 47 47 48 49 49 49 50 50 51 52 52 53 53 53 52 53 52 52 52 52 50 48 47 46 44 42 41 39
39 40 41 42 44 46 44 42 43 45 45 45 46 46 46 47 47 48 48 48 48 49 50 51 51 51 52 51 51 51 52 52 51 51 50 49 47 45 43 42 41 40 38 36
39 39 40 40 42 43 42 42 43 44 45 44 45 46 46 47 47 46 46 46 47 49 49 50 50 50 50 50 51 51 51 50 49 49 47 46 44 43 41 39 38 36 35 33
38 38 39 39 40 41 40 40 41 42 43 43 43 44 44 45 45 45 45 46 47 47 48 48 49 49 49 49 50 49 49 48 47 46 44 43 42 42 40 38 36 34 32 29
36 37 38 38 39 38 37 39 40 41 41 41 41 42 43 43 43 44 45 46 47 47 48 48 48 48 48 48 48 47 46 45 44 43 42 41 41 39 38 36 33 31 29 26
34 35 36 38 38 37 36 36 38 38 39 40 41 42 43 44 44 45 46 46 47 47 47 47 48 47 47 48 47 46 45 44 43 42 41 40 38 37 35 33 30 28 26 24
33 33 34 35 36 36 36 36 37 38 38 39 41 41 42 42 43 44 44 45 45 45 45 46 46 46 46 46 45 44 43 42 41 40 39 38 36 34 32 30 27 25 22 21
34 34 34 34 34 35 35 36 37 38 38 39 40 41 42 42 41 41 41 42 42 42 42 43 43 43 43 43 42 42 41 40 39 38 37 35 33 31 29 27 25 22 19 18
33 34 34 34 34 35 35 35 36 37 39 40 40 41 41 42 41 41 41 41 41 40 41 41 41 41 41 40 40 40 39 39 37 35 33 31 29 27 25 23 21 19 17 16
Wind_Direction
247 249 250 252 253 254 254 256 258 260 260 260 261 261 262 264 265 267 268 269 270 271 271 272 272 271 272 273 274 274 274 273 273 273 274 274 275 276 276 276 277 278 277 276
248 250 251 251 253 255 256 258 260 261 262 262 262 262 263 265 267 268 269 270 272 272 273 273 274 274 274 275 276 276 276 275 275 276 276 277 277 278 278 279 279 279 279 278
250 250 251 252 253 256 257 259 261 262 263 264 264 262 263 266 268 269 271 272 273 274 276 276 276 276 276 276 276 277 277 277 276 277 278 279 280 280 281 280 280 280 279 279
250 251 252 253 254 256 258 260 261 262 263 265 265 266 264 266 268 270 272 273 274 275 276 277 277 278 278 278 278 279 278 278 278 279 280 281 281 281 281 281 281 281 280 281
250 251 252 253 255 256 258 259 260 262 264 265 266 268 267 268 269 271 272 273 274 276 277 278 279 281 281 280 280 280 280 280 280 281 281 282 282 282 282 282 282 282 282 282
249 250 251 252 254 255 257 258 260 262 263 264 265 268 268 269 271 272 273 275 276 277 278 279 281 282 283 282 281 282 281 281 282 282 283 284 284 284 283 283 283 284 283 283
248 249 251 252 253 254 256 258 260 262 263 265 267 268 270 271 273 274 275 277 278 279 280 281 282 283 283 283 283 284 284 283 283 284 284 285 285 286 285 285 285 285 284 284
248 248 250 251 253 255 256 257 260 263 265 267 267 268 270 272 274 276 278 278 279 281 282 282 284 285 286 286 286 285 285 285 285 285 286 286 287 287 287 287 286 286 285 284
249 249 249 251 252 253 255 257 260 262 264 266 267 269 271 274 276 278 280 281 281 282 283 284 286 287 288 288 288 288 287 286 286 287 288 288 288 288 289 288 287 287 286 285
248 250 250 251 252 252 255 257 258 261 264 267 268 270 273 275 277 278 280 281 282 282 284 285 286 287 288 289 289 289 289 289 288 289 290 290 290 290 289 289 287 286 286 285
248 250 251 252 253 254 255 257 259 262 264 267 270 272 274 277 279 280 281 281 282 283 284 286 287 288 288 289 290 290 290 290 290 291 291 290 291 290 290 289 288 288 288 286
248 250 252 253 253 254 255 256 258 261 264 266 269 272 274 277 279 280 281 282 283 284 285 286 288 288 288 289 290 290 290 290 290 291 291 292 292 291 290 289 288 288 288 287
249 250 252 252 253 254 255 257 259 261 263 265 268 271 274 277 278 279 280 281 281 282 283 285 287 287 288 289 290 290 290 291 291 292 292 293 293 293 292 290 289 288 287 286
249 250 251 253 256 257 257 258 259 261 263 265 268 271 272 275 276 277 278 279 280 282 283 284 286 288 289 290 290 291 291 292 292 293 293 293 294 293 292 291 290 288 287 286
248 251 252 253 254 255 256 257 259 261 263 266 268 270 272 272 273 275 277 278 280 281 283 284 285 287 289 290 291 292 292 292 292 293 294 293 293 293 293 292 290 290 288 287
248 250 251 252 254 255 256 257 259 261 263 265 267 269 271 272 273 274 276 278 279 281 283 284 286 287 289 290 292 292 292 292 292 293 294 294 294 294 293 291 290 290 288 286
247 249 251 252 253 254 256 258 259 261 262 264 266 268 269 270 272 274 276 278 279 281 283 285 286 288 289 290 292 293 293 293 293 293 294 294 295 295 293 293 292 291 289 287
248 249 252 254 254 255 257 258 259 261 262 263 264 266 268 271 272 274 276 278 280 282 283 285 287 288 289 290 291 293 293 293 293 293 293 294 295 295 294 293 292 291 290 287
251 252 254 256 258 259 259 260 260 261 262 263 266 267 269 270 272 274 276 279 281 283 285 286 288 288 289 290 292 293 293 293 293 293 293 294 294 295 294 293 292 290 288 286
251 253 255 257 259 260 261 260 260 262 263 264 266 268 270 272 273 275 277 279 282 284 287 288 289 289 289 290 292 293 293 293 292 293 293 293 293 294 293 292 291 289 287 284
252 253 255 257 259 261 262 262 262 263 265 266 268 270 272 273 275 275 277 279 282 284 286 287 288 289 290 290 291 293 293 292 291 291 292 292 292 292 292 291 289 286 284 281
254 255 255 256 258 260 261 262 264 266 267 267 269 271 272 274 275 276 278 280 282 284 285 286 287 289 290 291 291 291 292 291 291 291 291 291 291 291 292 291 288 285 281 278
254 256 257 257 259 261 261 263 265 267 267 268 269 271 273 274 276 277 279 281 283 284 284 285 286 288 289 290 291 291 291 291 290 291 290 289 290 290 290 288 286 282 276 274
254 254 256 258 259 261 262 263 266 268 270 270 271 273 275 276 277 279 281 282 283 283 283 284 285 287 288 289 290 290 290 289 289 288 288 287 287 287 285 283 282 278 271 269
254 254 256 257 259 261 262 263 266 268 271 273 274 274 275 276 277 279 280 280 282 283 283 284 285 286 287 288 288 289 289 288 287 287 287 286 285 284 282 279 278 272 265 262
255 256 257 258 259 262 262 264 266 269 271 274 276 276 276 277 278 278 279 281 282 283 284 284 285 286 287 287 288 288 288 287 286 285 285 285 283 281 278 276 272 265 258 251
Height
5725 5728 5730 5731 5731 5732 5733 5734 5735 5735 5735 5736 5737 5738 5738 5737 5738 5738 5737 5737 5737 5737 5736 5735 5734 5733 5733 5732 5731 5730 5729 5728 5727 5727 5726 5725 5724 5722 5721 5720 5718 5717 5716 5715
5718 5720 5722 5722 5723 5724 5725 5726 5728 5728 5728 5729 5730 5731 5731 5730 5730 5730 5730 5730 5729 5728 5728 5727 5725 5724 5723 5722 5721 5720 5719 5718 5717 5716 5715 5714 5713 5711 5710 5708 5707 5705 5703 5702
5709 5712 5713 5714 5715 5717 5718 5719 5720 5720 5720 5721 5722 5723 5724 5724 5723 5723 5722 5722 5721 5720 5719 5718 5716 5715 5713 5712 5710 5709 5708 5707 5706 5705 5704 5702 5701 5699 5698 5696 5694 5692 5690 5688
5699 5702 5704 5705 5707 5708 5709 5711 5711 5711 5712 5712 5714 5714 5717 5716 5715 5715 5714 5714 5713 5712 5710 5709 5707 5705 5703 5701 5700 5698 5697 5696 5695 5693 5692 5690 5689 5687 5685 5683 5681 5679 5676 5674
5690 5693 5694 5696 5699 5699 5700 5701 5702 5702 5702 5703 5704 5704 5708 5707 5707 5707 5706 5705 5704 5703 5701 5699 5697 5695 5692 5689 5688 5687 5685 5684 5682 5681 5679 5677 5676 5674 5672 5669 5667 5665 5662 5659
5680 5682 5684 5687 5688 5689 5690 5691 5692 5692 5693 5694 5696 5695 5696 5698 5698 5698 5697 5696 5694 5693 5691 5689 5687 5684 5682 5679 5677 5675 5673 5672 5670 5668 5666 5664 5662 5660 5657 5655 5652 5650 5647 5644
5669 5671 5674 5676 5677 5679 5681 5682 5682 5682 5682 5684 5686 5685 5687 5688 5688 5688 5687 5686 5684 5683 5681 5679 5677 5674 5672 5669 5666 5664 5661 5659 5657 5655 5652 5650 5647 5645 5642 5639 5637 5634 5631 5627
5657 5661 5663 5666 5668 5669 5670 5672 5673 5673 5673 5674 5674 5675 5678 5678 5677 5677 5676 5675 5674 5672 5670 5668 5666 5663 5660 5657 5654 5652 5649 5646 5644 5641 5638 5635 5632 5629 5626 5623 5620 5617 5613 5610
5645 5649 5652 5654 5656 5658 5659 5660 5662 5662 5661 5662 5663 5665 5667 5667 5667 5666 5665 5664 5663 5661 5659 5657 5654 5651 5648 5645 5642 5639 5636 5633 5630 5627 5624 5621 5617 5614 5611 5607 5603 5599 5596 5592
5633 5636 5640 5642 5644 5646 5648 5650 5650 5650 5649 5650 5651 5654 5656 5656 5656 5655 5654 5652 5651 5649 5647 5645 5642 5639 5636 5633 5630 5627 5623 5620 5616 5613 5610 5606 5602 5598 5594 5590 5586 5582 5579 5574
5621 5624 5627 5630 5633 5636 5638 5639 5639 5639 5639 5640 5640 5645 5645 5645 5644 5643 5642 5640 5638 5637 5635 5633 5630 5627 5624 5621 5617 5613 5610 5606 5602 5599 5595 5591 5587 5582 5578 5573 5570 5565 5561 5557
5608 5610 5614 5618 5621 5622 5624 5626 5627 5628 5629 5628 5629 5635 5633 5633 5632 5631 5629 5627 5626 5624 5622 5620 5617 5614 5611 5608 5604 5600 5596 5592 5588 5584 5580 5576 5571 5567 5562 5558 5553 5549 5545 5541
5595 5598 5601 5604 5608 5610 5611 5614 5615 5616 5616 5616 5618 5624 5623 5622 5620 5618 5617 5615 5613 5611 5609 5607 5604 5601 5598 5595 5591 5587 5583 5578 5574 5569 5565 5561 5556 5551 5547 5542 5538 5533 5529 5525
5583 5585 5590 5593 5595 5597 5599 5602 5603 5603 5603 5605 5607 5611 5612 5609 5607 5606 5604 5602 5601 5599 5596 5594 5591 5588 5585 5581 5577 5573 5569 5564 5560 5555 5551 5546 5541 5536 5532 5527 5523 5518 5514 5510
5570 5574 5577 5580 5582 5584 5586 5589 5590 5590 5592 5593 5596 5597 5599 5597 5594 5593 5592 5590 5588 5586 5583 5581 5578 5575 5572 5568 5564 5559 5555 5550 5545 5541 5536 5531 5527 5522 5517 5512 5508 5504 5499 5495
5559 5562 5565 5567 5569 5570 5572 5576 5577 5578 5579 5580 5581 5584 5585 5583 5582 5580 5579 5578 5576 5573 5571 5568 5565 5562 5558 5554 5550 5546 5541 5536 5531 5527 5521 5517 5512 5507 5503 5498 5494 5490 5486 5482
5548 5550 5552 5555 5557 5557 5560 5565 5566 5566 5567 5568 5568 5572 5571 5570 5569 5568 5566 5565 5562 5560 5557 5555 5551 5548 5544 5540 5536 5532 5527 5522 5517 5513 5508 5503 5498 5494 5489 5485 5480 5476 5472 5469
5537 5539 5539 5541 5544 5544 5552 5554 5554 5553 5554 5555 5555 5556 5557 5556 5555 5554 5553 5551 5549 5547 5544 5541 5538 5534 5531 5526 5522 5518 5513 5508 5504 5499 5495 5490 5485 5481 5476 5472 5468 5464 5461 5458
5526 5528 5529 5530 5531 5532 5539 5541 5541 5540 5541 5542 5543 5543 5543 5542 5541 5541 5540 5537 5535 5533 5530 5527 5524 5520 5517 5513 5508 5504 5500 5495 5491 5486 5482 5478 5473 5469 5465 5461 5457 5454 5450 5448
5515 5517 5519 5519 5520 5522 5528 5528 5527 5528 5528 5530 5530 5530 5530 5529 5528 5529 5526 5524 5522 5519 5517 5514 5510 5507 5503 5499 5495 5491 5486 5482 5478 5474 5470 5466 5461 5457 5454 5450 5447 5444 5441 5439
5505 5506 5507 5508 5509 5511 5516 5515 5515 5517 5518 5518 5517 5517 5516 5515 5515 5515 5513 5511 5509 5506 5503 5500 5497 5494 5490 5486 5482 5478 5474 5470 5465 5462 5458 5454 5451 5447 5443 5440 5437 5434 5432 5430
5494 5495 5497 5498 5499 5504 5504 5503 5504 5504 5504 5504 5504 5504 5503 5502 5501 5500 5499 5497 5495 5493 5490 5487 5484 5480 5477 5473 5469 5466 5462 5457 5454 5450 5447 5444 5440 5436 5433 5430 5428 5426 5424 5423
5483 5486 5486 5488 5491 5492 5492 5492 5491 5491 5491 5491 5491 5491 5490 5490 5488 5487 5486 5484 5482 5479 5477 5474 5470 5468 5464 5460 5456 5453 5449 5446 5442 5439 5436 5433 5430 5427 5423 5421 5419 5417 5416 5416
5473 5474 5475 5476 5478 5480 5480 5480 5480 5479 5479 5479 5479 5478 5478 5476 5475 5474 5472 5470 5468 5466 5463 5460 5457 5455 5452 5448 5444 5441 5437 5434 5431 5428 5426 5422 5420 5417 5415 5413 5411 5410 5409 5409
5464 5464 5464 5466 5468 5468 5469 5469 5468 5468 5467 5467 5467 5466 5465 5464 5462 5461 5459 5457 5455 5452 5450 5447 5444 5442 5439 5436 5432 5429 5425 5423 5420 5418 5415 5412 5410 5408 5406 5405 5404 5403 5404 5403
5455 5455 5455 5456 5457 5457 5458 5458 5458 5457 5457 5456 5455 5454 5453 5451 5450 5448 5446 5444 5442 5440 5437 5435 5432 5429 5427 5424 5421 5417 5414 5411 5409 5407 5405 5403 5401 5400 5399 5398 5398 5397 5398 5398